This demonstration page uses our WeatherBlox Daily Observations layout. Learn more.

Left ArrowRight Arrow

53.62937, 11.41316

Hourly Observations for August 23, 2021

Temp ( °F °C ) Dew Point ( °F °C ) Humidity (%) Winds ( mph kmh ) Pressure ( in mb ) Visibility ( mi km ) Precip ( " mm )
6:20 am 06:20 Mostly Sunny 59 15 57 14 94 94 NNE 8 13 30.15 1021 7 11 N/A
6:50 am 06:50 Mostly Sunny 59 15 57 14 94 94 NNE 8 13 30.15 1021 7 11 N/A
7:20 am 07:20 Mostly Sunny 61 16 57 14 88 88 NE 10 17 30.15 1021 30 48 N/A
7:50 am 07:50 Mostly Sunny 61 16 57 14 88 88 NE 10 17 30.18 1022 30 48 N/A
8:20 am 08:20 Mostly Sunny 63 17 57 14 83 83 NE 10 17 30.18 1022 30 48 N/A
8:50 am 08:50 Mostly Sunny 63 17 57 14 83 83 NE 14 22 30.18 1022 30 48 N/A
9:20 am 09:20 Mostly Sunny 64 18 57 14 78 78 NE 13 20 30.21 1023 30 48 N/A
9:50 am 09:50 Mostly Sunny 64 18 55 13 73 73 ENE 15 24 30.21 1023 30 48 N/A
10:20 am 10:20 Mostly Sunny 66 19 55 13 68 68 NE 15 24 30.21 1023 30 48 N/A
10:50 am 10:50 Mostly Sunny 66 19 55 13 68 68 NE 15 24 30.21 1023 30 48 N/A
11:20 am 11:20 Mostly Sunny 66 19 55 13 68 68 NE 13 20 30.24 1024 30 48 N/A
11:50 am 11:50 Mostly Sunny 68 20 57 14 69 69 NE 12 19 30.24 1024 30 48 N/A
12:20 pm 12:20 Mostly Sunny 68 20 55 13 64 64 NE 13 20 30.24 1024 30 48 N/A
12:50 pm 12:50 Mostly Sunny 68 20 55 13 64 64 NE 12 19 30.24 1024 30 48 N/A
1:20 pm 13:20 Mostly Sunny 68 20 54 12 60 60 NNE 13 20 30.24 1024 7 11 N/A
1:50 pm 13:50 Mostly Sunny 70 21 52 11 53 53 NE 14 22 30.24 1024 7 11 N/A
2:20 pm 14:20 Mostly Sunny 70 21 52 11 53 53 NE 13 20 30.24 1024 7 11 N/A
2:50 pm 14:50 Mostly Sunny 70 21 54 12 57 57 NE 14 22 30.24 1024 7 11 N/A
3:20 pm 15:20 Mostly Sunny 70 21 50 10 50 50 NE 14 22 30.24 1024 7 11 N/A
3:50 pm 15:50 Mostly Sunny 70 21 48 9 46 46 NE 13 20 30.27 1025 7 11 N/A
4:20 pm 16:20 Mostly Sunny 70 21 46 8 43 43 NE 14 22 30.27 1025 7 11 N/A
4:50 pm 16:50 Mostly Sunny 70 21 48 9 46 46 NE 12 19 30.27 1025 7 11 N/A
5:20 pm 17:20 Mostly Sunny 70 21 48 9 46 46 NNE 12 19 30.27 1025 7 11 N/A
5:50 pm 17:50 Mostly Sunny 70 21 50 10 50 50 NNE 8 13 30.27 1025 7 11 N/A
6:20 pm 18:20 Mostly Sunny 70 21 48 9 46 46 NNE 8 13 30.27 1025 7 11 N/A
6:50 pm 18:50 Mostly Sunny 68 20 50 10 53 53 N 8 13 30.27 1025 7 11 N/A
7:20 pm 19:20 Mostly Sunny 66 19 50 10 56 56 NNE 7 11 30.27 1025 7 11 N/A
7:50 pm 19:50 Mostly Sunny 64 18 50 10 60 60 NE 6 9 30.27 1025 7 11 N/A
8:20 pm 20:20 Mostly Sunny 63 17 50 10 64 64 NNE 5 7 30.27 1025 7 11 N/A
8:50 pm 20:50 Mostly Clear 61 16 50 10 68 68 NE 2 4 30.30 1026 7 11 N/A
9:20 pm 21:20 Mostly Clear 61 16 50 10 68 68 NE 3 6 30.30 1026 7 11 N/A
9:50 pm 21:50 Mostly Clear 59 15 50 10 72 72 ENE 2 4 30.30 1026 7 11 N/A

Powered by AerisWeather